User: anonymous   Login
Location: Hohe Wand Kleine Kanzel
(47.8330°N, 16.0170°E)
Time: 18:40:20
(UTC+02:00)
Language:

UKube-1 - Orbit

View from above orbital plane
View from above orbital plane
View from above satellite
View from above satellite

Ground track
Ground track

The orbit data is extracted from the following two-line orbital elements,

1 40074U 14037F   21268.06213418  .00000370  00000-0  50915-4 0  9998
2 40074  98.4167 129.4342 0005674  63.6757 296.5034 14.84639063390682
Epoch (UTC): 25 September 2021 01:29:28
Eccentricity: 0.0005674
inclination: 98.4167°
perigee height: 611 km
apogee height: 618 km
right ascension of ascending node: 129.4342°
argument of perigee: 63.6757°
revolutions per day: 14.84639063
mean anomaly at epoch: 296.5034°
orbit number at epoch: 39068

The dashed part of the orbit path shows where the satellite is in the earth's shadow,  

DLR